This is the latest recevied weather packets stored in our database for station/object S51FO-6. If no packets are shown the sender has not sent any weather packets the latest 10 day(s).
| Time | Temp. | Humidity | Pressure | Rain* | Wind** | Luminosity | Snow |
|---|---|---|---|---|---|---|---|
| 1777489784 | 3.33° C | 82% | - | 3.56 mm | - | - | - |
| 1777482584 | 3.33° C | 81% | - | 3.81 mm | - | - | - |
| 1777480184 | 3.89° C | 81% | - | 1.78 mm | - | - | - |
| 1777477184 | 4.44° C | 81% | - | 0.25 mm | - | - | - |
| 1777471784 | 5° C | 78% | - | 0 mm | - | - | - |
| 1777469984 | 6.11° C | 76% | - | 0 mm | - | - | - |
| 1777468784 | 5.56° C | 77% | - | 0 mm | - | - | - |
| 1777468184 | 6.11° C | 78% | - | 0 mm | - | - | - |
| 1777465784 | 6.11° C | 77% | - | 0.51 mm | - | - | - |
| 1777464584 | 6.67° C | 75% | - | 0.25 mm | - | - | - |
| 1777463984 | 6.67° C | 74% | - | 0 mm | - | - | - |
| 1777462784 | 7.22° C | 69% | - | 0 mm | - | - | - |
| 1777461584 | 7.78° C | 63% | - | 0 mm | - | - | - |
| 1777460985 | 8.33° C | 61% | - | 0 mm | - | - | - |
| 1777457984 | 8.89° C | 63% | - | 0 mm | - | - | - |
| 1777455584 | 9.44° C | 59% | - | 0 mm | - | - | - |
| 1777454384 | 8.89° C | 59% | - | 0 mm | - | - | - |
| 1777453184 | 8.89° C | 58% | - | 0 mm | - | - | - |
| 1777451984 | 8.89° C | 61% | - | 0 mm | - | - | - |
| 1777450784 | 7.78° C | 62% | - | 0 mm | - | - | - |
| 1777449584 | 7.78° C | 63% | - | 0 mm | - | - | - |
| 1777448384 | 7.78° C | 62% | - | 0 mm | - | - | - |
| 1777447184 | 7.78° C | 60% | - | 0 mm | - | - | - |
| 1777446584 | 8.33° C | 60% | - | 0 mm | - | - | - |
| 1777444184 | 7.78° C | 61% | - | 0 mm | - | - | - |
* Rain latest hour (hover to see other rain measurements)
** Current wind speed in m/s (hover to see current wind gust speed)